Hourly Data Report for May 26, 2012

All times are specified in Local Standard Time (LST). Add 1 hour to adjust for Daylight Saving Time where and when it is observed.

CHURCHILL A
MANITOBA

58°44'21.000" N
94°03'59.000" W
29.30 m
5060605
71618
YYQ

Related Data

No related data is available for this station

Download Data

Hourly Data (May 2012)
Hourly Data Report for May 26, 2012
Temp Definition
°C
Dew Point Temp Definition
°C
Rel Hum Definition
%
Wind Dir Definition
10's deg

Wind Spd Definition
km/h
Visibility Definition
km
Stn Press Definition
kPa
Hmdx Definition


Wind Chill Definition


Weather Definition


TIME
00:00 Legend Double Dagger -3.5 -5.5 86 24 17 10.0 102.01   -9 Mainly Clear
01:00 Legend Double Dagger -3.8 -5.5 88 24 19 10.0 102.02   -10 LegendNANA
02:00 Legend Double Dagger -4.2 -5.3 92 24 18 10.0 102.02   -10 LegendNANA
03:00 Legend Double Dagger -4.4 -5.4 93 24 17 10.0 102.01   -10 Clear
04:00 Legend Double Dagger -4.0 -5.6 89 24 23 10.0 101.98   -11 LegendNANA
05:00 Legend Double Dagger -3.4 -5.4 86 24 17 10.0 101.97   -9 LegendNANA
06:00 Legend Double Dagger -1.9 -4.9 80 24 19 10.0 101.95   -7 Mainly Clear
07:00 Legend Double Dagger -0.3 -4.6 73 25 17 10.0 101.94   -5 LegendNANA
08:00 Legend Double Dagger 1.5 -4.6 64 30 10 10.0 101.93     LegendNANA
09:00 Legend Double Dagger 2.6 -4.4 60 29 12 10.0 101.93     Mainly Clear
10:00 Legend Double Dagger 3.9 -4.1 56 32 10 10.0 101.90     LegendNANA
11:00 Legend Double Dagger 4.9 -4.7 50 33 11 10.0 101.90     LegendNANA
12:00 Legend Double Dagger 5.9 -4.3 48 0 9 10.0 101.89     Mainly Clear
13:00 Legend Double Dagger 6.1 -3.0 52 2 12 10.0 101.89     LegendNANA
14:00 Legend Double Dagger 7.5 -4.6 42 0 6 10.0 101.87     LegendNANA
15:00 Legend Double Dagger 8.1 -3.1 45 2 13 10.0 101.84     Mainly Clear
16:00 Legend Double Dagger 9.2 -2.7 43 1 9 10.0 101.80     LegendNANA
17:00 Legend Double Dagger 8.9 -0.9 50 8 8 10.0 101.77     LegendNANA
18:00 Legend Double Dagger 8.1 0.4 58 7 10 10.0 101.78     Mainly Clear
19:00 Legend Double Dagger 4.6 1.1 78 3 17 10.0 101.80     LegendNANA
20:00 Legend Double Dagger 4.4 1.1 79 6 4 10.0 101.83     LegendNANA
21:00 Legend Double Dagger 4.4 0.7 77 11 11 10.0 101.88     Clear
22:00 Legend Double Dagger 3.4 -0.3 77 15 10 10.0 101.90     LegendNANA
23:00 Legend Double Dagger 2.8 -0.8 77 17 5 10.0 101.90     LegendNANA

Notes on Data Quality.

Legend

  • E = Estimated
  • M = Missing
  • NA = Not Available
  • ‡ = Partner data that is not subject to review by the National Climate Archives
Date modified: